Weather History for Eureka, NV

Change the Weather History Date:

Wednesday, October 9, 2013

  Actual Average Record
Temperature  
Mean Temperature 46 °F 49 °F  
Max Temperature 59 °F 67 °F 87 °F (1996)
Min Temperature 32 °F 30 °F 11 °F (1968)
Degree Days  
Heating Degree Days 19 16  
Month to date heating degree days 155 131  
Since 1 July heating degree days 346 395  
Cooling Degree Days 0 0  
Month to date cooling degree days 0 0  
Year to date cooling degree days 585 288  
Moisture  
Dew Point 24 °F    
Average Humidity 50    
Maximum Humidity 76    
Minimum Humidity 23    
Precipitation  
Precipitation 0.00 in 0.02 in 0.03 in (2000)
Month to date precipitation 0.00 0.17  
Year to date precipitation 6.14 7.04  
Sea Level Pressure  
Sea Level Pressure 29.60 in    
Wind  
Wind Speed 7 mph (SE)    
Max Wind Speed 26 mph    
Max Gust Speed 33 mph    
T = Trace of Precipitation, MM = Missing Value Source: NWS Daily Summary

Daily Weather History Graph

Daily Weather History Graph

Search for Another Location

Airport:

Trip Planner

Search our weather history database for the weather conditions in past years. The results will help you decide how hot, cold, wet, or windy it might be!

Date:

Astronomy

Oct. 09, 2013 Rise Set
Actual Time 6:48 AM PDT 6:13 PM PDT
Civil Twilight 6:21 AM PDT 6:40 PM PDT
Nautical Twilight 5:50 AM PDT 7:11 PM PDT
Astronomical Twilight 5:18 AM PDT 7:42 PM PDT
Moon 11:47 AM PDT (10/9) 9:53 PM PDT (10/9)
Length of Visible Light 12h 18m
Length of Day
11h 25m
Waxing Crescent, 26% of the Moon is Illuminated
Oct 9
Waxing Crescent
Oct 11
First Quarter
Oct 18
Full
Oct 26
Last Quarter
Nov 3
New

Hourly Weather History & Observations

Time (PDT) Temp. Windchill Dew Point Humidity Pressure Visibility Wind Dir Wind Speed Gust Speed Precip Events Conditions
12:53 AM 41.0 °F 39.0 °F 15.1 °F 35% 29.61 in - SSW 3.5 mph - N/A   Unknown
1:53 AM 37.9 °F 34.4 °F 16.0 °F 41% 29.58 in - NW 4.6 mph - N/A   Unknown
2:53 AM 36.0 °F 32.1 °F 15.1 °F 43% 29.58 in - NNW 4.6 mph - N/A   Unknown
3:53 AM 36.0 °F 29.6 °F 15.1 °F 43% 29.58 in - SSE 8.1 mph - N/A   Unknown
4:53 AM 35.1 °F - 17.1 °F 48% 29.56 in - Calm Calm - N/A   Unknown
5:53 AM 35.1 °F 29.3 °F 17.1 °F 48% 29.56 in - NNW 6.9 mph - N/A   Unknown
6:53 AM 36.0 °F 30.3 °F 19.9 °F 52% 29.57 in - North 6.9 mph - N/A   Unknown
7:53 AM 37.0 °F 34.5 °F 21.0 °F 52% 29.59 in - SSE 3.5 mph - N/A   Unknown
8:53 AM 41.0 °F 38.0 °F 21.9 °F 47% 29.59 in - NE 4.6 mph - N/A   Unknown
9:53 AM 45.0 °F - 23.0 °F 42% 29.57 in - Calm Calm - N/A   Unknown
10:53 AM 51.1 °F - 21.9 °F 32% 29.56 in - Variable 3.5 mph - N/A   Unknown
11:53 AM 55.0 °F - 21.0 °F 27% 29.54 in - North 4.6 mph - N/A   Unknown
12:53 PM 55.9 °F - 21.9 °F 27% 29.51 in - Calm Calm - N/A   Unknown
1:53 PM 57.9 °F - 19.0 °F 22% 29.52 in - South 20.7 mph 27.6 mph N/A   Unknown
2:53 PM 53.1 °F - 24.1 °F 32% 29.57 in - East 16.1 mph 32.2 mph N/A   Unknown
3:53 PM 50.0 °F - 30.0 °F 46% 29.61 in - ENE 16.1 mph 24.2 mph N/A   Unknown
4:53 PM 50.0 °F - 27.0 °F 41% 29.62 in - ESE 12.7 mph 28.8 mph N/A   Unknown
5:53 PM 46.9 °F - 30.0 °F 52% 29.66 in - WSW 5.8 mph - N/A   Unknown
6:53 PM 45.0 °F 38.5 °F 33.1 °F 63% 29.68 in - SSE 13.8 mph - N/A   Unknown
7:53 PM 44.1 °F 38.1 °F 34.0 °F 68% 29.69 in - ESE 11.5 mph - N/A   Unknown
8:53 PM 42.1 °F 36.1 °F 34.0 °F 73% 29.68 in - South 10.4 mph - N/A   Unknown
9:53 PM 42.1 °F - 33.1 °F 70% 29.68 in - Calm Calm - N/A   Unknown
10:53 PM 39.9 °F 36.7 °F 32.0 °F 73% 29.67 in - SW 4.6 mph - N/A   Unknown
11:53 PM 37.0 °F 33.3 °F 30.0 °F 76% 29.67 in - SSW 4.6 mph - N/A   Unknown